Location: Newark
(35.6799°N, 139.7636°E)
Time: 01:37:27
(UTC+00:00)

Courier 1B - Pass Details

Date: 16 December 2019
Orbit: 962 x 1209 km, 28.3° (Epoch: 23 January)

Event Time Altitude Azimuth Distance (km) Brightness Sun altitude
Rises 11:18:19 0° 256° (WSW) 3,792 11.3 -45.6°
Reaches altitude 10° 11:21:03 10° 251° (WSW) 2,875 10.4 -46.2°
Enters shadow 11:22:51 19° 244° (WSW) 2,312 9.8 -46.6°
